Location: ASU Dark Sky Observatory
(36.2504°N, 81.4125°W)
Time: 06:48:59
(UTC-05:00)

Amateur Radio Satellites - All Passes

Search period start: 11 December 2016 06:18
Search period end: 12 December 2016 06:18
Location: ASU Dark Sky Observatory, 36.2504°N, 81.4125°W

Satellite Date Start Highest point End Downlink Frequencies (MHz)
Time Altitude Azimuth
AO-7 11 Dec 06:21:05 06:26:10 18° 307° (NW) 06:31:15 29.400- 29.500
Cosmos 2491 11 Dec 06:25:05 06:33:38 60° 91° (E) 06:42:11 435.465 / 435.565
GOMX 1 11 Dec 06:27:17 06:32:48 75° 283° (WNW) 06:38:09 467.674
HO-68 11 Dec 06:37:12 06:39:40 12° 90° (E) 06:42:08 435.675
NOAA 18 11 Dec 06:37:22 06:42:30 38° 99° (E) 06:47:34 137.9125
LilacSat-2 11 Dec 06:37:33 06:41:20 85° 102° (ESE) 06:45:05 437.200
AIST 2 11 Dec 06:40:31 06:44:33 63° 117° (ESE) 06:48:39 435.215
CINEMA 3 11 Dec 06:47:29 06:50:12 15° 91° (E) 06:52:50 145.822/145.860
RS-15 11 Dec 07:09:11 07:20:55 85° 299° (WNW) 07:33:17 29.354- 29.394
CANX-2 11 Dec 07:11:36 07:14:34 18° 94° (E) 07:17:31 2200.000
HORYU 2 11 Dec 07:12:52 07:14:56 13° 295° (WNW) 07:16:58 437.375
CUTE-I 11 Dec 07:19:53 07:25:00 49° 288° (WNW) 07:30:05 437.470
Cosmos 2504 11 Dec 07:21:41 07:30:17 71° 267° (W) 07:38:17 435.465 / 435.565
BRITE-PL 11 Dec 07:23:46 07:25:29 11° 298° (WNW) 07:27:13 437.365/2234.400
NOAA 15 11 Dec 07:23:56 07:28:52 41° 289° (WNW) 07:33:48 137.62
SEEDS 11 Dec 07:25:21 07:27:45 15° 93° (E) 07:30:08 437.485
STRAND 1 11 Dec 07:36:12 07:41:02 42° 261° (W) 07:45:53 437.568
DOVE 4 11 Dec 07:47:04 07:51:30 29° 291° (WNW) 07:55:46 437.250
Cubesat XI-IV 11 Dec 07:48:16 07:52:44 28° 292° (WNW) 07:57:10 437.490
YUBILEINY 11 Dec 07:57:08 08:03:20 22° 279° (W) 08:09:32 435.215
AIST 1 11 Dec 07:58:25 08:00:18 13° 275° (W) 08:02:11
CUBEBUG 2 11 Dec 08:02:27 08:05:53 23° 95° (E) 08:09:13 437.445
NOAA 18 11 Dec 08:18:27 08:22:55 26° 294° (WNW) 08:27:20 137.9125
HO-68 11 Dec 08:20:59 08:28:14 84° 105° (ESE) 08:35:27 435.675
AIST 2 11 Dec 08:21:36 08:23:27 13° 314° (NW) 08:25:17 435.215
AAUSAT CUBESAT 2 11 Dec 08:22:35 08:26:25 35° 98° (E) 08:30:14 437.432
CINEMA 3 11 Dec 08:23:09 08:27:34 42° 287° (WNW) 08:31:46 145.822/145.860
Cosmos 2491 11 Dec 08:23:54 08:30:57 27° 289° (WNW) 08:38:01 435.465 / 435.565
PRISM 11 Dec 08:24:37 08:28:22 37° 72° (ENE) 08:32:10 437.425
CUTE 1.7 + AOD 2 11 Dec 08:27:04 08:31:14 62° 285° (WNW) 08:35:25 437.475
UWE-3 11 Dec 08:32:16 08:36:03 31° 97° (E) 08:39:46 435.000/436.395/437.385
CANX-2 11 Dec 08:46:42 08:50:26 31° 288° (WNW) 08:54:09 2200.000
COMPASS 1 11 Dec 08:58:37 09:02:44 60° 285° (WNW) 09:06:51 437.405
SEEDS 11 Dec 08:59:40 09:03:33 38° 287° (WNW) 09:07:26 437.485
ZACube-1 11 Dec 08:59:56 09:03:51 39° 98° (E) 09:07:44 437.345
CUSAT 1 11 Dec 09:04:02 09:07:00 83° 281° (WNW) 09:09:37 437.405
FUNcube-1 11 Dec 09:04:10 09:08:06 40° 98° (E) 09:11:59 145.935
DANDE 11 Dec 09:05:35 09:08:30 19° 96° (E) 09:10:59 436.750
UNISAT 6 11 Dec 09:07:52 09:11:47 27° 70° (ENE) 09:15:40 437.425
PCSat 11 Dec 09:09:17 09:12:24 16° 104° (ESE) 09:15:32 145.827
JUGNU 11 Dec 09:17:11 09:20:00 14° 171° (S) 09:22:50 437.505
Cosmos 2504 11 Dec 09:20:43 09:21:52 10° 286° (WNW) 09:23:00 435.465 / 435.565
RS-15 11 Dec 09:25:40 09:35:28 28° 325° (NW) 09:45:35 29.354- 29.394
Oscar 11 11 Dec 09:26:55 09:31:14 77° 102° (ESE) 09:35:32 145.826/435.025
TIGRISAT 11 Dec 09:35:17 09:39:48 51° 74° (ENE) 09:44:16 435.000
HUMSAT D 11 Dec 09:37:03 09:39:30 15° 94° (E) 09:41:57 437.325/437.525
ANTELSAT 11 Dec 09:38:15 09:42:50 58° 75° (ENE) 09:47:22 437.575/2403.000
CUBEBUG 2 11 Dec 09:38:56 09:42:25 24° 290° (WNW) 09:45:49 437.445
AAUSAT CUBESAT 2 11 Dec 09:58:59 10:01:35 16° 292° (WNW) 10:04:10 437.432
PRISM 11 Dec 10:01:38 10:03:48 14° 267° (W) 10:05:57 437.425
DELFI C3 11 Dec 10:04:39 10:08:39 74° 103° (ESE) 10:12:38 145.870
Cosmos 2499 11 Dec 10:05:08 10:10:34 18° 66° (ENE) 10:15:45 435.465 / 435.565
NANOSAT C BR1 11 Dec 10:08:04 10:09:00 11° 64° (ENE) 10:09:56 145.865
UWE-3 11 Dec 10:09:24 10:12:15 18° 292° (WNW) 10:15:03 435.000/436.395/437.385
AO-85 11 Dec 10:09:27 10:13:23 89° 269° (W) 10:17:15 145.980
HO-68 11 Dec 10:10:40 10:15:03 17° 302° (WNW) 10:19:25 435.675
QB50P2 11 Dec 10:17:50 10:20:34 17° 67° (ENE) 10:23:18 145.880/145.840
POLYITAN 1 11 Dec 10:18:20 10:20:56 16° 67° (ENE) 10:23:32 437.675
DUCHIFAT 1 11 Dec 10:25:20 10:27:54 16° 67° (ENE) 10:30:31 145.980
JAS-2 11 Dec 10:27:28 10:33:18 43° 72° (ENE) 10:38:34 435.910
QB50P1 11 Dec 10:28:44 10:31:55 21° 69° (ENE) 10:35:06 145.935-145.965
ZACube-1 11 Dec 10:37:31 10:39:46 14° 293° (WNW) 10:42:00 437.345
GONETS M04 11 Dec 10:37:43 10:45:07 30° 72° (ENE) 10:52:30
FUNcube-1 11 Dec 10:41:48 10:43:57 14° 294° (WNW) 10:46:06 145.935
UNISAT 6 11 Dec 10:44:30 10:48:23 26° 264° (W) 10:52:15 437.425
DANDE 11 Dec 10:48:17 10:51:02 18° 280° (W) 10:53:24 436.750
PCSat 11 Dec 10:49:53 10:55:13 60° 299° (WNW) 11:00:35 145.827
POPSAT HIP 1 11 Dec 10:50:02 10:53:55 35° 72° (ENE) 10:57:50 437.405
ESTCUBE 1 11 Dec 10:50:13 10:52:50 15° 93° (E) 10:55:25 437.505/2401.250
BUGSAT 1 11 Dec 10:58:19 11:00:32 14° 66° (ENE) 11:02:44 437.445
JUGNU 11 Dec 11:04:45 11:08:14 16° 182° (S) 11:11:44 437.505
SRMSAT 11 Dec 11:08:17 11:10:06 11° 168° (SSE) 11:11:55 437.500
HUMSAT D 11 Dec 11:11:31 11:15:11 33° 288° (WNW) 11:18:52 437.325/437.525
TIGRISAT 11 Dec 11:14:21 11:16:41 14° 268° (W) 11:19:02 435.000
ANTELSAT 11 Dec 11:18:07 11:19:49 12° 268° (W) 11:21:30 437.575/2403.000
NANOSAT C BR1 11 Dec 11:39:57 11:44:09 60° 259° (W) 11:48:24 145.865
RS-15 11 Dec 11:47:45 11:54:19 15° 1° (N) 12:00:55 29.354- 29.394
QB50P2 11 Dec 11:52:04 11:56:02 37° 262° (W) 12:00:01 145.880/145.840
POLYITAN 1 11 Dec 11:52:22 11:56:22 39° 261° (W) 12:00:25 437.675
Cosmos 2499 11 Dec 11:56:20 12:04:43 79° 267° (W) 12:12:26 435.465 / 435.565
DUCHIFAT 1 11 Dec 11:59:17 12:03:15 38° 262° (W) 12:07:14 145.980
QB50P1 11 Dec 12:03:44 12:07:28 29° 263° (W) 12:11:13 145.935-145.965
AISAT 11 Dec 12:06:30 12:10:47 44° 99° (E) 12:15:02 437.250
JAS-2 11 Dec 12:13:28 12:18:25 24° 263° (W) 12:23:00 435.910
CUBEBUG 1 11 Dec 12:16:24 12:20:52 88° 107° (ESE) 12:25:17 437.445
Oscar 19 11 Dec 12:20:38 12:25:01 30° 69° (ENE) 12:29:26 437.125/150
ESTCUBE 1 11 Dec 12:25:31 12:29:48 43° 287° (WNW) 12:34:05 437.505/2401.250
POPSAT HIP 1 11 Dec 12:27:00 12:29:47 17° 266° (W) 12:32:33 437.405
50 SAT 11 Dec 12:28:39 12:32:13 68° 101° (E) 12:35:47 437.505
SPROUT 11 Dec 12:31:14 12:35:27 54° 100° (E) 12:39:36 437.525
BUGSAT 1 11 Dec 12:31:25 12:35:28 44° 261° (W) 12:39:33 437.445
UKube-1 11 Dec 12:31:37 12:35:25 29° 97° (E) 12:39:10 .
GONETS M04 11 Dec 12:33:51 12:42:14 54° 270° (W) 12:50:38
DX 1 11 Dec 12:36:08 12:40:23 46° 100° (E) 12:44:34 434.975-435.025
BEESAT 3 11 Dec 12:38:57 12:42:48 47° 57° (ENE) 12:46:38 437.485
VELOX 1 11 Dec 12:42:51 12:47:19 73° 285° (WNW) 12:51:44 145.980
JUGNU 11 Dec 12:54:22 12:56:28 12° 192° (SSW) 12:58:33 437.505
SRMSAT 11 Dec 12:55:02 12:58:29 16° 178° (S) 13:01:54 437.500
Gurwin Techsat 1B 11 Dec 13:04:19 13:09:14 40° 71° (ENE) 13:14:11 435.225
BEESAT 2 11 Dec 13:21:02 13:25:03 62° 59° (ENE) 13:29:01 435.950
TISAT 1 11 Dec 13:31:42 13:35:38 38° 99° (E) 13:39:31 437.305
AO-7 11 Dec 13:32:32 13:38:23 22° 55° (NE) 13:44:13 29.400- 29.500
AISAT 11 Dec 13:44:15 13:46:50 15° 294° (WNW) 13:49:25 437.250
Cosmos 2499 11 Dec 13:53:44 13:56:11 12° 285° (WNW) 13:58:37 435.465 / 435.565
ISS 11 Dec 13:59:40 14:02:55 69° 136° (SE) 14:06:11 145.825
Oscar 19 11 Dec 13:59:52 14:04:14 28° 264° (W) 14:08:39 437.125/150
RS-15 11 Dec 14:02:44 14:13:04 29° 36° (NE) 14:23:08 29.354- 29.394
UKube-1 11 Dec 14:07:58 14:11:14 21° 292° (WNW) 14:14:30 .
SPROUT 11 Dec 14:09:19 14:10:51 12° 295° (WNW) 14:12:23 437.525
DX 1 11 Dec 14:13:46 14:16:08 14° 294° (WNW) 14:18:30 434.975-435.025
BEESAT 3 11 Dec 14:18:26 14:19:58 12° 252° (WSW) 14:21:31 437.485
ITAMSAT 1 11 Dec 14:40:32 14:45:44 76° 75° (ENE) 14:50:56 435.822/435.867
SWISSCUBE 11 Dec 14:43:04 14:47:41 49° 100° (E) 14:52:15 437.505
SRMSAT 11 Dec 14:43:59 14:46:51 14° 188° (S) 14:49:42 437.500
Gurwin Techsat 1B 11 Dec 14:45:14 14:49:16 22° 265° (W) 14:53:21 435.225
O/OREOS (USA 219) 11 Dec 14:45:22 14:49:48 52° 106° (ESE) 14:54:13 437.305
BEESAT 11 Dec 14:46:28 14:51:02 47° 99° (E) 14:55:37 436.000
MOZHAYETS 4 11 Dec 14:59:47 15:02:21 15° 93° (E) 15:04:55
AUBIESAT-1 11 Dec 15:03:42 15:08:00 45° 103° (ESE) 15:12:01 437.475
AIST 2 11 Dec 15:04:46 15:07:58 20° 50° (NE) 15:11:09 435.215
TISAT 1 11 Dec 15:08:24 15:10:55 16° 293° (WNW) 15:13:24 437.305
ITUPSAT 1 11 Dec 15:18:10 15:22:56 80° 284° (WNW) 15:27:41 437.325
M-CUBED/EXP-1 PRIME 11 Dec 15:21:06 15:25:42 89° 301° (WNW) 15:30:01 437.505
AO-7 11 Dec 15:21:53 15:30:12 80° 254° (WSW) 15:38:34 29.400- 29.500
ISS 11 Dec 15:37:40 15:39:44 15° 334° (NNW) 15:41:48 145.825
STARS 11 Dec 16:10:40 16:13:12 15° 93° (E) 16:15:42 437.465
RS-15 11 Dec 16:15:02 16:27:28 88° 61° (ENE) 16:39:24 29.354- 29.394
KKS-1 11 Dec 16:20:32 16:24:51 45° 100° (E) 16:29:06 437.445
SWISSCUBE 11 Dec 16:22:13 16:25:02 16° 295° (WNW) 16:27:50 437.505
ITAMSAT 1 11 Dec 16:24:29 16:25:40 11° 269° (W) 16:26:51 435.822/435.867
BEESAT 11 Dec 16:25:30 16:28:25 16° 295° (WNW) 16:31:19 436.000
O/OREOS (USA 219) 11 Dec 16:27:03 16:29:30 14° 303° (WNW) 16:31:56 437.305
HORYU 2 11 Dec 16:29:53 16:33:56 34° 71° (ENE) 16:38:00 437.375
MOZHAYETS 4 11 Dec 16:35:22 16:39:42 44° 287° (WNW) 16:44:02
AUBIESAT-1 11 Dec 16:39:12 16:41:56 16° 300° (WNW) 16:44:35 437.475
Cosmos 2491 11 Dec 16:39:31 16:46:27 26° 70° (ENE) 16:53:19 435.465 / 435.565
AIST 2 11 Dec 16:42:40 16:46:31 35° 246° (WSW) 16:50:22 435.215
BRITE-PL 11 Dec 16:50:45 16:55:06 78° 77° (ENE) 16:59:51 437.365/2234.400
CUBESAT XI-V 11 Dec 16:54:41 16:59:03 38° 98° (E) 17:03:24 437.345
CUTE-I 11 Dec 17:00:17 17:04:29 24° 67° (ENE) 17:08:41 437.470
NOAA 15 11 Dec 17:02:31 17:06:51 27° 68° (ENE) 17:11:12 137.62
YUBILEINY 11 Dec 17:04:57 17:09:03 14° 77° (ENE) 17:13:10 435.215
DOVE 4 11 Dec 17:12:09 17:15:59 23° 67° (ENE) 17:19:57 437.250
LilacSat-2 11 Dec 17:17:04 17:20:20 27° 72° (ENE) 17:23:35 437.200
AO-7 11 Dec 17:20:41 17:24:00 13° 270° (W) 17:27:21 29.400- 29.500
Cubesat XI-IV 11 Dec 17:27:18 17:32:20 42° 71° (ENE) 17:37:22 437.490
GOMX 1 11 Dec 17:32:20 17:37:01 87° 77° (ENE) 17:42:05 467.674
STARS 11 Dec 17:45:33 17:49:42 41° 288° (WNW) 17:53:49 437.465
CINEMA 3 11 Dec 17:46:57 17:49:10 13° 64° (ENE) 17:51:24 145.822/145.860
KKS-1 11 Dec 17:58:26 18:00:59 15° 294° (WNW) 18:03:31 437.445
NOAA 18 11 Dec 18:00:51 18:06:15 57° 72° (ENE) 18:11:42 137.9125
Cosmos 2504 11 Dec 18:05:37 18:11:04 19° 79° (E) 18:16:39 435.465 / 435.565
HORYU 2 11 Dec 18:07:23 18:10:32 19° 265° (W) 18:13:41 437.375
RS-15 11 Dec 18:30:00 18:38:14 22° 261° (W) 18:46:18 29.354- 29.394
CUBESAT XI-V 11 Dec 18:32:49 18:36:07 19° 292° (WNW) 18:39:25 437.345
Cosmos 2491 11 Dec 18:35:16 18:43:48 62° 268° (W) 18:52:20 435.465 / 435.565
SO-50 11 Dec 18:37:01 18:41:47 71° 118° (ESE) 18:46:29 436.795
CUTE-I 11 Dec 18:39:17 18:44:15 39° 261° (W) 18:49:16 437.470
NOAA 15 11 Dec 18:41:48 18:46:28 32° 262° (W) 18:51:09 137.62
AIST 1 11 Dec 18:45:36 18:49:21 30° 90° (E) 18:53:10
HO-68 11 Dec 18:46:31 18:53:18 48° 68° (ENE) 19:00:07 435.675
DOVE 4 11 Dec 18:48:51 18:53:21 37° 264° (W) 18:58:07 437.250
LilacSat-2 11 Dec 18:52:03 18:54:36 17° 266° (W) 18:57:09 437.200
YUBILEINY 11 Dec 18:55:44 19:04:26 87° 96° (E) 19:13:15 435.215
CUBEBUG 2 11 Dec 18:58:13 19:01:15 17° 67° (ENE) 19:04:16 437.445
Cubesat XI-IV 11 Dec 19:08:30 19:12:31 21° 265° (W) 19:16:34 437.490
AAUSAT CUBESAT 2 11 Dec 19:11:06 19:13:45 17° 68° (ENE) 19:16:25 437.432
CUTE 1.7 + AOD 2 11 Dec 19:16:40 19:20:49 63° 75° (ENE) 19:24:59 437.475
CINEMA 3 11 Dec 19:20:42 19:25:39 69° 259° (W) 19:30:40 145.822/145.860
UWE-3 11 Dec 19:26:43 19:30:12 22° 69° (ENE) 19:33:39 435.000/436.395/437.385
CUSAT 1 11 Dec 19:35:21 19:39:38 45° 81° (E) 19:45:11 437.405
CANX-2 11 Dec 19:36:03 19:40:13 63° 259° (W) 19:44:23 2200.000
PCSat 11 Dec 19:40:16 19:45:39 61° 61° (ENE) 19:51:00 145.827
NOAA 18 11 Dec 19:43:48 19:47:13 17° 267° (W) 19:50:40 137.9125
COMPASS 1 11 Dec 19:46:17 19:50:20 60° 76° (ENE) 19:54:24 437.405
SEEDS 11 Dec 19:48:02 19:52:12 81° 258° (WSW) 19:56:22 437.485
STRAND 1 11 Dec 19:48:57 19:54:03 82° 102° (ESE) 19:59:09 437.568
ZACube-1 11 Dec 19:53:07 19:56:47 25° 70° (ENE) 20:00:23 437.345
Cosmos 2504 11 Dec 19:54:49 20:03:16 80° 277° (W) 20:12:11 435.465 / 435.565
FUNcube-1 11 Dec 19:57:04 20:00:43 25° 71° (ENE) 20:04:19 145.935
Oscar 11 11 Dec 20:18:56 20:22:58 40° 73° (ENE) 20:26:59 145.826/435.025
SO-50 11 Dec 20:20:03 20:22:42 15° 314° (NW) 20:25:21 436.795
AIST 1 11 Dec 20:23:54 20:26:57 19° 286° (WNW) 20:30:04
ISS 11 Dec 20:29:56 20:32:51 28° 33° (NNE) 20:35:44 145.825
CUBEBUG 2 11 Dec 20:32:58 20:37:29 44° 261° (W) 20:41:59 437.445
HO-68 11 Dec 20:35:07 20:41:09 29° 264° (W) 20:47:14 435.675
AAUSAT CUBESAT 2 11 Dec 20:45:16 20:48:57 32° 263° (W) 20:52:40 437.432
DELFI C3 11 Dec 20:47:57 20:51:17 27° 72° (ENE) 20:54:38 145.870
YUBILEINY 11 Dec 20:57:03 21:02:21 17° 295° (WNW) 21:07:44 435.215
PHONESAT 2.4 11 Dec 20:58:19 21:00:29 22° 149° (SSE) 21:02:39 2401.200-2431.200
UWE-3 11 Dec 21:02:16 21:06:25 32° 263° (W) 21:10:32 435.000/436.395/437.385
CUSAT 1 11 Dec 21:18:28 21:21:26 16° 267° (W) 21:24:50 437.405
DANDE 11 Dec 21:24:48 21:28:00 39° 263° (W) 21:32:06 436.750
PCSat 11 Dec 21:25:25 21:28:28 15° 256° (WSW) 21:31:31 145.827
ZACube-1 11 Dec 21:29:06 21:32:55 27° 264° (W) 21:36:42 437.345
STRAND 1 11 Dec 21:31:16 21:32:29 11° 299° (WNW) 21:33:43 437.568
TIGRISAT 11 Dec 21:31:47 21:33:17 12° 91° (E) 21:34:47 435.000
FUNcube-1 11 Dec 21:33:03 21:36:50 26° 264° (W) 21:40:33 145.935
ANTELSAT 11 Dec 21:34:22 21:36:33 14° 92° (E) 21:38:43 437.575/2403.000
PRISM 11 Dec 21:43:11 21:47:23 88° 288° (WNW) 21:51:33 437.425
ESTCUBE 1 11 Dec 21:49:15 21:50:08 11° 64° (ENE) 21:51:03 437.505/2401.250
Cosmos 2504 11 Dec 21:53:45 21:58:08 15° 297° (WNW) 22:02:37 435.465 / 435.565
Oscar 11 11 Dec 21:56:50 21:59:14 15° 267° (W) 22:01:38 145.826/435.025
HUMSAT D 11 Dec 21:59:15 22:03:26 74° 259° (W) 22:07:35 437.325/437.525
ISS 11 Dec 22:06:28 22:09:17 26° 229° (SW) 22:12:05 145.825
DELFI C3 11 Dec 22:23:25 22:26:05 17° 266° (W) 22:28:45 145.870
PHONESAT 2.4 11 Dec 22:32:50 22:35:28 56° 344° (NNW) 22:38:04 2401.200-2431.200
UNISAT 6 11 Dec 22:38:02 22:42:22 83° 100° (E) 22:46:38 437.425
Cosmos 2499 11 Dec 22:39:22 22:44:11 16° 78° (ENE) 22:49:03 435.465 / 435.565
AISAT 11 Dec 23:01:20 23:05:08 29° 70° (ENE) 23:08:58 437.250
50 SAT 11 Dec 23:02:12 23:04:34 17° 70° (ENE) 23:06:58 437.505
TIGRISAT 11 Dec 23:06:05 23:10:16 49° 286° (WNW) 23:14:22 435.000
ANTELSAT 11 Dec 23:09:23 23:13:28 42° 287° (WNW) 23:17:28 437.575/2403.000
CUBEBUG 1 11 Dec 23:09:26 23:13:39 50° 74° (ENE) 23:17:56 437.445
ESTCUBE 1 11 Dec 23:21:54 23:26:20 67° 258° (WSW) 23:30:48 437.505/2401.250
SPROUT 11 Dec 23:22:09 23:25:52 29° 71° (ENE) 23:29:37 437.525
JAS-2 11 Dec 23:23:08 23:28:12 44° 100° (E) 23:33:42 435.910
UKube-1 11 Dec 23:24:12 23:27:11 19° 67° (ENE) 23:30:10 .
NANOSAT C BR1 11 Dec 23:27:21 23:30:50 25° 96° (E) 23:34:17 145.865
DX 1 11 Dec 23:29:14 23:32:57 29° 70° (ENE) 23:36:44 434.975-435.025
GONETS M04 11 Dec 23:35:31 23:43:14 37° 86° (E) 23:50:57
VELOX 1 11 Dec 23:37:05 23:41:28 70° 75° (ENE) 23:45:54 145.980
QB50P2 11 Dec 23:39:18 23:43:18 40° 99° (E) 23:47:15 145.880/145.840
POLYITAN 1 11 Dec 23:39:41 23:43:37 38° 98° (E) 23:47:32 437.675
DUCHIFAT 1 11 Dec 23:45:45 23:49:40 37° 98° (E) 23:53:32 145.980
QB50P1 11 Dec 23:50:24 23:54:31 52° 100° (E) 23:58:37 145.935-145.965
PHONESAT 2.4 12 Dec 00:08:27 00:10:51 29° 0° (N) 00:13:14 2401.200-2431.200
POPSAT HIP 1 12 Dec 00:12:32 00:16:46 85° 283° (WNW) 00:20:58 437.405
BUGSAT 1 12 Dec 00:16:00 00:19:39 30° 97° (E) 00:23:14 437.445
AO-85 12 Dec 00:20:15 00:25:09 59° 117° (ESE) 00:29:44 145.980
TISAT 1 12 Dec 00:21:08 00:24:20 21° 69° (ENE) 00:27:31 437.305
Cosmos 2499 12 Dec 00:27:19 00:35:58 90° 93° (E) 00:44:55 435.465 / 435.565
50 SAT 12 Dec 00:34:57 00:37:41 21° 264° (W) 00:40:27 437.505
Oscar 19 12 Dec 00:36:24 00:38:32 12° 91° (E) 00:40:39 437.125/150
AISAT 12 Dec 00:38:06 00:41:33 22° 265° (W) 00:45:02 437.250
CUBEBUG 1 12 Dec 00:48:29 00:50:12 12° 268° (W) 00:51:55 437.445
O/OREOS (USA 219) 12 Dec 00:57:54 01:02:21 64° 68° (ENE) 01:06:46 437.305
SPROUT 12 Dec 00:58:34 01:01:46 20° 265° (W) 01:05:00 437.525
UKube-1 12 Dec 00:59:03 01:02:56 33° 262° (W) 01:06:52 .
NANOSAT C BR1 12 Dec 01:03:06 01:06:25 23° 291° (WNW) 01:09:42 145.865
DX 1 12 Dec 01:05:47 01:09:07 21° 265° (W) 01:12:28 434.975-435.025
JAS-2 12 Dec 01:09:13 01:13:03 21° 293° (WNW) 01:17:05 435.910
QB50P2 12 Dec 01:16:21 01:18:43 15° 293° (WNW) 01:21:04 145.880/145.840
POLYITAN 1 12 Dec 01:16:34 01:19:04 15° 293° (WNW) 01:21:33 437.675
DUCHIFAT 1 12 Dec 01:22:30 01:25:00 16° 293° (WNW) 01:27:29 145.980
Gurwin Techsat 1B 12 Dec 01:23:55 01:27:42 20° 94° (E) 01:31:27 435.225
QB50P1 12 Dec 01:28:14 01:29:47 12° 295° (WNW) 01:31:21 145.935-145.965
GONETS M04 12 Dec 01:31:43 01:39:50 42° 284° (WNW) 01:47:59
PHONESAT 2.4 12 Dec 01:43:38 01:46:14 57° 16° (NNE) 01:48:49 2401.200-2431.200
AUBIESAT-1 12 Dec 01:46:18 01:50:13 36° 66° (ENE) 01:54:21 437.475
SWISSCUBE 12 Dec 01:46:51 01:51:19 42° 72° (ENE) 01:55:48 437.505
BEESAT 12 Dec 01:50:12 01:54:38 40° 72° (ENE) 01:59:06 436.000
BUGSAT 1 12 Dec 01:51:52 01:54:46 19° 292° (WNW) 01:57:38 437.445
TISAT 1 12 Dec 01:56:06 01:59:46 28° 263° (W) 02:03:27 437.305
MOZHAYETS 4 12 Dec 02:00:43 02:02:03 11° 64° (ENE) 02:03:22
AO-85 12 Dec 02:02:46 02:05:51 17° 311° (NW) 02:08:49 145.980
M-CUBED/EXP-1 PRIME 12 Dec 02:03:57 02:08:09 73° 71° (ENE) 02:12:41 437.505
Oscar 19 12 Dec 02:13:05 02:18:15 67° 286° (WNW) 02:23:24 437.125/150
ITUPSAT 1 12 Dec 02:22:00 02:26:47 88° 76° (ENE) 02:31:35 437.325
Cosmos 2499 12 Dec 02:24:49 02:30:16 18° 295° (WNW) 02:35:49 435.465 / 435.565
BEESAT 3 12 Dec 02:28:09 02:30:18 14° 109° (ESE) 02:32:29 437.485
ITAMSAT 1 12 Dec 02:56:25 03:01:02 32° 97° (E) 03:05:37 435.822/435.867
Gurwin Techsat 1B 12 Dec 03:02:46 03:07:49 45° 288° (WNW) 03:12:50 435.225
STARS 12 Dec 03:06:44 03:07:32 10° 63° (ENE) 03:08:19 437.465
BEESAT 2 12 Dec 03:10:59 03:13:51 20° 111° (ESE) 03:16:45 435.950
SO-50 12 Dec 03:11:20 03:15:19 30° 52° (NE) 03:19:13 436.795
KKS-1 12 Dec 03:16:03 03:19:58 30° 70° (ENE) 03:23:54 437.445
PHONESAT 2.4 12 Dec 03:19:05 03:21:12 22° 211° (SSW) 03:23:19 2401.200-2431.200
AUBIESAT-1 12 Dec 03:21:44 03:24:43 18° 263° (W) 03:27:49 437.475
SWISSCUBE 12 Dec 03:26:08 03:29:15 17° 266° (W) 03:32:23 437.505
AO-7 12 Dec 03:26:46 03:34:34 41° 100° (E) 03:42:19 29.400- 29.500
BEESAT 12 Dec 03:29:19 03:32:32 18° 266° (W) 03:35:46 436.000
MOZHAYETS 4 12 Dec 03:34:04 03:38:37 65° 259° (W) 03:43:10
CUBESAT XI-V 12 Dec 03:55:39 03:59:30 27° 70° (ENE) 04:03:23 437.345
BEESAT 3 12 Dec 04:03:56 04:07:34 38° 304° (NW) 04:11:15 437.485
RS-15 12 Dec 04:28:57 04:34:42 15° 96° (E) 04:40:32 29.354- 29.394
ITAMSAT 1 12 Dec 04:36:04 04:40:20 27° 292° (WNW) 04:44:35 435.822/435.867
STARS 12 Dec 04:38:52 04:43:15 67° 258° (WSW) 04:47:42 437.465
BEESAT 2 12 Dec 04:47:59 04:51:26 29° 306° (NW) 04:54:57 435.950
SO-50 12 Dec 04:51:57 04:55:37 25° 248° (WSW) 04:59:15 436.795
KKS-1 12 Dec 04:53:06 04:56:30 21° 265° (W) 04:59:56 437.445
BRITE-PL 12 Dec 04:57:26 05:02:36 36° 97° (E) 05:07:47 437.365/2234.400
YUBILEINY 12 Dec 05:09:34 05:17:39 38° 75° (ENE) 05:25:41 435.215
AO-7 12 Dec 05:19:33 05:27:13 42° 297° (WNW) 05:34:52 29.400- 29.500
NOAA 15 12 Dec 05:21:57 05:23:51 12° 91° (E) 05:25:45 137.62
CUTE-I 12 Dec 05:22:30 05:23:16 10° 90° (E) 05:24:04 437.470
CUBESAT XI-V 12 Dec 05:33:03 05:36:48 25° 265° (W) 05:40:35 437.345
GOMX 1 12 Dec 05:36:47 05:41:50 36° 96° (E) 05:46:43 467.674
Cosmos 2491 12 Dec 05:37:32 05:44:58 32° 85° (E) 05:52:21 435.465 / 435.565
Cubesat XI-IV 12 Dec 05:47:55 05:51:50 21° 94° (E) 05:55:44 437.490
Cosmos 2504 12 Dec 05:51:50 05:59:30 34° 73° (ENE) 06:06:41 435.465 / 435.565
HORYU 2 12 Dec 05:59:13 06:03:39 81° 283° (WNW) 06:08:03 437.375
